RIGIDSPHERE 2 (LCS 4)

Last updated on Thu Sep 10 2026 00:03:41 GMT+0000 (Coordinated Universal Time)

1 05398U 71067E 26252.60425313 .00000390 00000+0 12110-3 0 9996 2 05398 87.6223 315.3811 0057930 314.2277 45.4173 14.37951968886017
UTC large
Height (km)
Speed (km/s)
/
Latitude / Longitude
Inclination (degrees)
Orbital Period (minutes)
Azimuth
Elevation
Range (km)
Doppler Factor

Next 0 passes for location: London (51.5072 / 0.1276)

No passes found over London.
RIGIDSPHERE 2 (LCS 4)